period_start,C,m1,H,J0,J1,J2,J3,J4,J5,JA,JB,JC,JD,JJ,JK,JN,#
2017-09-18 00:04:54,0.05,0.45,0.00,23.95,25.90,28.82,13.85,39.83,1022.00,2038.30,3388.04,2978.45,3396.00,600.30,597.63,52.69,0000 0000 0000 0000 000000
2017-09-18 00:09:55,0.00,0.45,0.00,23.96,25.90,28.81,13.77,39.84,1021.99,2038.15,3387.64,2978.01,3395.40,599.45,596.88,52.74,0000 0000 0000 0000 000000
2017-09-18 00:14:57,0.02,0.45,0.00,23.97,25.90,28.81,13.80,39.78,1021.99,2038.17,3387.02,2977.97,3395.01,600.16,597.37,52.79,0000 0000 0000 0000 000000
2017-09-18 00:19:58,0.02,0.45,0.00,23.93,25.90,28.82,13.82,39.92,1022.00,2038.14,3386.80,2977.38,3394.86,600.25,597.60,52.84,0000 0000 0000 0000 000000
2017-09-18 00:24:59,0.02,0.45,0.00,23.97,25.90,28.82,13.84,39.78,1021.99,2038.09,3386.04,2977.00,3394.07,600.19,597.47,52.89,0000 0000 0000 0000 000000
2017-09-18 00:30:01,0.01,0.45,0.00,23.92,25.90,28.84,13.75,39.69,1021.99,2038.16,3385.92,2976.93,3393.99,599.90,597.27,52.94,0000 0000 0000 0000 000000
2017-09-18 00:35:02,0.05,0.46,0.00,23.92,25.90,28.85,13.82,39.76,1021.99,2038.28,3385.19,2976.25,3393.59,600.12,597.44,52.99,0000 0000 0000 0000 000000
2017-09-18 00:40:04,-0.00,0.46,0.00,23.95,25.90,28.84,13.87,39.90,1021.99,2038.24,3384.83,2976.00,3393.02,600.26,597.49,53.04,0000 0000 0000 0000 000000
2017-09-18 00:45:05,0.01,0.46,0.00,23.98,25.90,28.85,13.76,39.82,1022.00,2038.09,3384.06,2975.77,3392.77,600.14,597.34,53.10,0000 0000 0000 0000 000000
2017-09-18 00:50:06,0.03,0.46,0.00,23.97,25.92,28.85,13.78,39.79,1021.99,2038.08,3383.82,2975.09,3392.07,599.90,597.14,53.15,0000 0000 0000 0000 000000
2017-09-18 00:55:08,0.01,0.46,0.00,23.96,25.92,28.87,13.74,39.78,1021.99,2038.05,3383.09,2974.97,3391.95,599.75,597.00,53.20,0000 0000 0000 0000 000000
2017-09-18 01:00:09,0.04,0.46,0.00,23.98,25.92,28.87,13.81,39.92,1022.00,2038.05,3382.93,2974.33,3391.19,600.16,597.38,53.25,0000 0000 0000 0000 000000
2017-09-18 01:05:10,0.01,0.46,0.00,23.95,25.92,28.87,13.69,39.77,1022.00,2038.02,3382.23,2974.01,3391.00,599.63,597.01,53.30,0000 0000 0000 0000 000000
2017-09-18 01:10:11,0.00,0.46,0.00,23.95,25.92,28.89,13.82,39.75,1022.00,2038.01,3382.01,2973.99,3390.99,600.20,597.50,53.35,0000 0000 0000 0000 000000
2017-09-18 01:15:12,0.01,0.46,0.00,23.97,25.94,28.88,13.88,39.73,1021.99,2038.04,3381.84,2973.86,3390.75,600.10,597.32,53.40,0000 0000 0000 0000 000000
2017-09-18 01:20:13,0.03,0.46,0.00,23.95,25.95,28.90,13.88,39.82,1021.99,2038.01,3381.15,2973.17,3390.06,600.18,597.44,53.45,0000 0000 0000 0000 000000
2017-09-18 01:25:14,0.00,0.46,0.00,23.94,25.95,28.90,13.77,39.88,1021.99,2038.01,3380.96,2973.00,3389.97,600.14,597.39,53.50,0000 0000 0000 0000 000000
2017-09-18 01:30:16,0.04,0.47,0.00,23.92,25.95,28.91,13.76,39.69,1021.99,2038.00,3380.16,2972.63,3389.24,600.03,597.36,53.55,0000 0000 0000 0000 000000
2017-09-18 01:35:17,0.01,0.47,0.00,23.93,25.96,28.92,13.77,39.85,1021.99,2038.00,3379.87,2972.05,3388.95,599.85,597.15,53.60,0000 0000 0000 0000 000000
2017-09-18 01:40:18,0.02,0.47,0.00,23.93,25.97,28.93,13.85,39.95,1021.99,2038.00,3379.04,2971.97,3388.36,599.79,597.01,53.65,0000 0000 0000 0000 000000
2017-09-18 01:45:19,0.01,0.47,0.00,23.93,25.97,28.93,13.76,39.81,1021.99,2038.00,3378.83,2971.70,3388.02,600.10,597.34,53.70,0000 0000 0000 0000 000000
2017-09-18 01:50:21,0.02,0.47,0.00,23.89,25.98,28.94,13.84,39.90,1021.99,2038.00,3378.09,2971.09,3388.00,600.37,597.76,53.75,0000 0000 0000 0000 000000
2017-09-18 01:55:22,0.00,0.47,0.00,23.94,26.00,28.95,13.75,39.80,1021.99,2038.00,3378.00,2971.00,3387.98,600.17,597.44,53.80,0000 0000 0000 0000 000000
2017-09-18 02:00:23,0.00,0.47,0.00,23.85,26.00,28.93,13.78,39.88,1021.99,2038.00,3378.00,2971.00,3387.89,599.87,597.36,53.85,0000 0000 0000 0000 000000
2017-09-18 02:05:24,0.02,0.47,0.00,23.88,26.01,28.94,13.79,39.90,1021.98,2038.00,3377.80,2970.99,3387.34,599.93,597.32,53.90,0000 0000 0000 0000 000000
2017-09-18 02:10:26,0.01,0.47,0.00,23.88,26.02,28.91,13.82,39.92,1021.99,2038.00,3377.17,2970.87,3387.01,600.12,597.52,53.95,0000 0000 0000 0000 000000
2017-09-18 02:15:27,0.01,0.47,0.00,23.92,26.02,28.92,13.80,39.88,1021.98,2037.99,3377.03,2970.66,3387.00,599.92,597.24,54.00,0000 0000 0000 0000 000000
2017-09-18 02:20:28,0.01,0.47,0.00,23.86,26.05,28.96,13.80,39.91,1021.99,2037.99,3377.00,2970.19,3387.00,599.92,597.54,54.05,0000 0000 0000 0000 000000
2017-09-18 02:25:30,0.00,0.47,0.00,23.90,26.05,28.92,13.69,39.82,1021.99,2037.98,3377.00,2970.03,3386.97,599.67,597.06,54.11,0000 0000 0000 0000 000000
2017-09-18 02:30:31,0.00,0.47,0.00,23.83,26.06,28.88,13.81,39.85,1021.99,2037.98,3376.96,2970.00,3386.87,600.33,597.75,54.16,0000 0000 0000 0000 000000
2017-09-18 02:35:32,0.02,0.47,0.00,23.90,26.07,28.83,13.78,39.84,1021.99,2037.94,3376.63,2970.00,3386.24,599.87,597.24,54.21,0000 0000 0000 0000 000000
2017-09-18 02:40:34,0.00,0.48,0.00,23.80,26.08,28.87,13.89,39.92,1021.99,2037.91,3376.07,2969.99,3386.02,600.31,597.88,54.26,0000 0000 0000 0000 000000
2017-09-18 02:45:35,-0.00,0.48,0.00,23.93,26.10,28.86,13.81,39.77,1022.00,2037.87,3376.01,2969.96,3386.00,600.47,597.93,54.31,0000 0000 0000 0000 000000
2017-09-18 02:50:36,0.00,0.48,0.00,23.87,26.10,28.93,13.80,39.72,1022.00,2037.95,3376.00,2969.95,3386.00,599.86,597.30,54.36,0000 0000 0000 0000 000000
2017-09-18 02:55:38,0.00,0.48,0.00,23.91,26.11,28.91,13.83,39.83,1021.99,2037.95,3376.00,2969.87,3386.00,600.03,597.36,54.41,0000 0000 0000 0000 000000
2017-09-18 03:00:39,0.01,0.48,0.00,23.83,26.12,28.89,13.76,39.97,1021.99,2037.87,3375.94,2969.37,3385.99,599.94,597.34,54.46,0000 0000 0000 0000 000000
2017-09-18 03:05:40,-0.00,0.48,0.00,23.94,26.12,28.92,13.82,39.80,1021.99,2037.70,3375.49,2969.09,3385.90,599.83,597.01,54.51,0000 0000 0000 0000 000000
2017-09-18 03:10:41,-0.02,0.48,0.00,23.82,26.13,28.93,13.80,39.86,1021.99,2037.36,3375.14,2969.01,3385.50,599.67,597.14,54.56,0000 0000 0000 0000 000000
2017-09-18 03:15:43,-0.01,0.48,0.00,23.86,26.15,28.90,13.71,39.69,1021.99,2037.23,3375.01,2969.00,3385.07,599.74,597.10,54.61,0000 0000 0000 0000 000000
2017-09-18 03:20:44,-0.00,0.48,0.00,23.87,26.15,28.90,13.80,39.75,1021.99,2037.12,3375.00,2969.00,3385.01,600.11,597.46,54.66,0000 0000 0000 0000 000000
2017-09-18 03:25:46,-0.00,0.47,0.00,23.84,26.16,28.94,13.77,39.74,1021.99,2037.09,3374.99,2969.00,3385.00,599.68,597.14,54.71,0000 0000 0000 0000 000000
2017-09-18 03:30:47,-0.00,0.47,0.00,23.84,26.17,28.92,13.79,39.79,1022.00,2037.07,3374.97,2968.99,3385.00,600.13,597.54,54.76,0000 0000 0000 0000 000000
2017-09-18 03:35:48,0.00,0.47,0.00,23.86,26.17,28.90,13.74,39.91,1022.00,2037.07,3374.79,2968.95,3384.99,599.93,597.47,54.81,0000 0000 0000 0000 000000
2017-09-18 03:40:49,0.01,0.48,0.00,23.85,26.18,28.90,13.80,39.75,1022.00,2037.05,3374.31,2968.83,3384.96,600.29,597.77,54.86,0000 0000 0000 0000 000000
2017-09-18 03:45:51,0.01,0.48,0.00,23.93,26.20,28.96,13.85,39.88,1021.99,2037.01,3374.11,2968.44,3384.84,600.16,597.64,54.91,0000 0000 0000 0000 000000
2017-09-18 03:50:52,0.01,0.48,0.00,23.83,26.20,28.96,13.81,39.81,1021.99,2037.01,3374.00,2968.07,3384.22,600.25,597.65,54.96,0000 0000 0000 0000 000000
2017-09-18 03:55:53,0.00,0.48,0.00,23.82,26.21,28.94,13.80,39.78,1022.00,2037.00,3373.98,2968.01,3384.05,600.31,597.85,55.01,0000 0000 0000 0000 000000
2017-09-18 04:00:55,0.00,0.48,0.00,23.84,26.22,28.95,13.83,39.97,1021.99,2037.00,3373.88,2968.00,3384.01,599.96,597.49,55.07,0000 0000 0000 0000 000000
2017-09-18 04:05:56,-0.00,0.48,0.00,23.84,26.23,28.94,13.87,39.83,1021.99,2037.00,3373.74,2968.00,3384.00,600.31,597.79,55.12,0000 0000 0000 0000 000000
2017-09-18 04:10:57,0.01,0.48,0.00,23.82,26.25,28.95,13.81,39.76,1021.99,2037.00,3373.40,2968.00,3383.99,600.14,597.62,55.17,0000 0000 0000 0000 000000
2017-09-18 04:15:59,0.00,0.48,0.00,23.74,26.25,28.95,13.83,39.79,1021.99,2037.00,3373.13,2967.99,3383.99,600.04,597.64,55.22,0000 0000 0000 0000 000000
2017-09-18 04:21:00,0.00,0.48,0.00,23.71,26.27,28.96,13.80,39.91,1022.00,2037.00,3373.03,2967.97,3383.93,600.02,597.62,55.27,0000 0000 0000 0000 000000
2017-09-18 04:26:01,0.00,0.48,0.00,23.79,26.27,28.98,13.84,39.77,1022.03,2037.00,3373.00,2967.87,3383.70,600.35,597.96,55.32,0000 0000 0000 0000 000000
2017-09-18 04:31:03,0.02,0.48,0.00,23.82,26.29,28.99,13.77,39.69,1022.02,2037.00,3372.98,2967.34,3383.24,600.12,597.59,55.37,0000 0000 0000 0000 000000
2017-09-18 04:36:04,0.00,0.48,0.00,23.81,26.30,28.99,13.75,39.80,1022.03,2036.99,3372.94,2967.05,3383.01,600.02,597.61,55.42,0000 0000 0000 0000 000000
2017-09-18 04:41:05,0.01,0.48,0.00,23.81,26.32,29.01,13.80,39.83,1022.11,2036.96,3372.42,2967.00,3383.00,599.94,597.65,55.47,0000 0000 0000 0000 000000
2017-09-18 04:46:07,0.00,0.48,0.00,23.77,26.32,29.01,13.79,39.84,1022.13,2036.97,3372.18,2967.00,3382.99,600.03,597.74,55.52,0000 0000 0000 0000 000000
2017-09-18 04:51:08,-0.01,0.48,0.00,23.78,26.34,29.04,13.78,39.74,1022.22,2036.79,3372.01,2966.99,3382.80,599.82,597.61,55.57,0000 0000 0000 0000 000000
2017-09-18 04:56:09,-0.01,0.48,0.00,23.78,26.35,29.05,13.88,39.86,1022.14,2036.70,3372.00,2966.98,3382.45,599.99,597.62,55.62,0000 0000 0000 0000 000000
2017-09-18 05:01:10,-0.02,0.48,0.00,23.75,26.36,29.05,13.77,39.83,1022.13,2036.31,3371.97,2966.71,3382.06,599.76,597.55,55.67,0000 0000 0000 0000 000000
2017-09-18 05:06:12,0.01,0.48,0.00,23.77,26.37,29.05,13.76,39.82,1022.10,2036.13,3371.71,2966.19,3382.00,599.78,597.48,55.72,0000 0000 0000 0000 000000
2017-09-18 05:11:13,0.01,0.48,0.00,23.72,26.38,29.07,13.78,39.88,1022.18,2036.14,3371.14,2966.07,3382.00,600.06,597.91,55.77,0000 0000 0000 0000 000000
2017-09-18 05:16:14,-0.00,0.48,0.00,23.71,26.40,29.08,13.81,39.81,1022.31,2036.07,3371.00,2966.00,3381.99,600.07,598.01,55.82,0000 0000 0000 0000 000000
2017-09-18 05:21:16,0.00,0.48,0.00,23.68,26.40,29.08,13.80,39.85,1022.39,2036.05,3370.99,2965.99,3381.88,599.87,597.84,55.87,0000 0000 0000 0000 000000
2017-09-18 05:26:17,0.00,0.48,0.00,23.75,26.41,29.10,13.76,39.79,1022.42,2036.05,3370.98,2965.99,3381.55,599.62,597.55,55.92,0000 0000 0000 0000 000000
2017-09-18 05:31:18,-0.00,0.48,0.00,23.72,26.42,29.10,13.79,39.78,1022.40,2036.01,3370.86,2965.98,3381.14,599.83,597.70,55.98,0000 0000 0000 0000 000000
2017-09-18 05:36:19,0.01,0.48,0.00,23.73,26.42,29.12,13.80,39.83,1022.29,2036.00,3370.66,2965.91,3381.01,600.03,597.89,56.03,0000 0000 0000 0000 000000
2017-09-18 05:41:21,0.54,0.49,0.00,23.66,26.43,29.13,13.84,39.88,1022.30,2036.00,3362.85,2961.63,3376.69,599.81,597.85,56.08,0000 0000 0000 0000 000000
2017-09-18 05:46:22,0.11,0.51,0.00,23.67,26.45,29.14,13.90,39.89,1022.43,2036.00,3354.13,2957.05,3371.24,600.30,598.40,56.13,0000 0000 0000 0000 000000
2017-09-18 05:51:23,0.01,0.51,0.00,23.68,26.45,29.13,13.85,39.90,1022.45,2036.00,3353.64,2956.70,3371.00,600.03,598.17,56.18,0000 0000 0000 0000 000000
2017-09-18 05:56:25,0.02,0.52,0.00,23.73,26.45,29.15,13.82,39.88,1022.46,2036.00,3353.12,2956.27,3371.00,600.14,598.14,56.23,0000 0000 0000 0000 000000
2017-09-18 06:01:26,0.01,0.52,0.00,23.71,26.47,29.15,13.80,39.92,1022.46,2035.99,3352.98,2956.02,3370.76,599.52,597.46,56.28,0000 0000 0000 0000 000000
2017-09-18 06:06:27,0.01,0.52,0.00,23.64,26.47,29.15,13.90,39.80,1022.46,2035.98,3352.71,2956.00,3370.12,600.23,598.35,56.33,0000 0000 0000 0000 000000
2017-09-18 06:11:29,0.01,0.52,0.00,23.68,26.47,29.15,13.81,39.84,1022.45,2035.97,3352.20,2956.00,3370.02,599.91,598.07,56.38,0000 0000 0000 0000 000000
2017-09-18 06:16:30,0.01,0.52,0.00,23.42,26.50,29.13,13.86,39.91,1022.43,2035.95,3352.00,2955.64,3369.98,599.58,598.22,56.43,0000 0000 0000 0000 000000
2017-09-18 06:21:31,0.03,0.52,0.00,23.51,26.51,29.07,13.85,39.97,1022.29,2035.88,3351.25,2955.02,3369.24,599.94,598.27,56.48,0000 0000 0000 0000 000000
2017-09-18 06:26:33,-0.01,0.52,0.00,23.74,26.54,29.06,13.90,39.92,1022.40,2035.33,3350.36,2954.37,3368.77,600.15,598.07,56.53,0000 0000 0000 0000 000000
2017-09-18 06:31:34,0.00,0.52,0.00,23.91,26.57,29.10,13.77,39.94,1022.46,2035.05,3349.81,2953.99,3368.05,599.92,597.54,56.58,0000 0000 0000 0000 000000
2017-09-18 06:36:35,0.04,0.52,0.00,23.98,26.62,29.20,13.81,40.58,1022.48,2034.99,3349.03,2953.22,3367.33,600.41,597.77,56.63,0000 0000 0000 0000 000000
2017-09-18 06:41:37,0.01,0.52,0.00,24.00,26.68,29.32,13.82,40.55,1022.48,2034.98,3348.47,2952.97,3366.95,599.79,597.26,56.68,0000 0000 0000 0000 000000
2017-09-18 06:46:38,-0.01,0.52,0.00,24.00,26.75,29.43,13.79,40.38,1022.48,2034.58,3348.00,2952.25,3366.18,600.26,597.72,56.73,0000 0000 0000 0000 000000
2017-09-18 06:51:39,-0.01,0.52,0.00,24.06,26.81,29.54,13.79,40.33,1022.48,2034.06,3347.35,2951.98,3365.84,599.90,597.29,56.78,0000 0000 0000 0000 000000
2017-09-18 06:56:41,0.03,0.52,0.00,24.07,26.89,29.66,13.86,40.34,1022.48,2034.00,3346.97,2951.30,3365.07,599.89,597.21,56.83,0000 0000 0000 0000 000000
2017-09-18 07:01:42,0.00,0.52,0.00,24.00,26.95,29.78,13.82,40.20,1022.49,2033.89,3346.42,2951.00,3364.83,599.73,597.19,56.88,0000 0000 0000 0000 000000
2017-09-18 07:06:43,-0.03,0.52,0.00,24.03,27.02,29.88,13.86,40.37,1022.50,2033.34,3346.01,2950.72,3364.11,600.02,597.50,56.93,0000 0000 0000 0000 000000
2017-09-18 07:11:44,0.01,0.52,0.00,24.24,27.09,29.96,13.87,40.25,1022.55,2033.02,3345.60,2950.05,3363.92,599.98,597.00,56.99,0000 0000 0000 0000 000000
2017-09-18 07:16:45,0.01,0.52,0.00,24.37,27.16,30.00,13.73,40.01,1022.58,2033.00,3345.03,2949.98,3363.27,599.73,596.57,57.04,0000 0000 0000 0000 000000
2017-09-18 07:21:46,0.01,0.52,0.00,24.24,27.23,30.05,13.84,39.92,1022.63,2032.91,3344.85,2949.39,3362.97,600.44,597.50,57.09,0000 0000 0000 0000 000000
2017-09-18 07:26:48,-0.01,0.52,0.00,24.17,27.29,30.11,13.83,39.78,1022.72,2032.57,3344.16,2949.01,3362.36,600.15,597.41,57.14,0000 0000 0000 0000 000000
2017-09-18 07:31:50,-0.01,0.52,0.00,24.18,27.35,30.17,13.80,39.77,1022.79,2032.05,3343.93,2948.72,3362.00,600.35,597.64,57.19,0000 0000 0000 0000 000000
2017-09-18 07:36:51,0.03,0.52,0.00,24.20,27.40,30.21,13.83,39.88,1022.85,2032.00,3343.19,2948.04,3361.39,599.60,596.94,57.24,0000 0000 0000 0000 000000
2017-09-18 07:41:52,0.00,0.53,0.00,24.26,27.45,30.24,13.83,39.75,1022.87,2032.00,3343.01,2948.00,3361.01,600.11,597.27,57.29,0000 0000 0000 0000 000000
2017-09-18 07:46:53,0.00,0.53,0.00,24.22,27.49,30.28,13.82,39.60,1022.92,2031.98,3342.96,2947.93,3360.99,599.70,597.02,57.34,0000 0000 0000 0000 000000
2017-09-18 07:51:55,0.03,0.53,0.00,24.21,27.52,30.31,13.75,39.64,1022.94,2031.91,3342.38,2947.32,3360.64,599.50,596.73,57.39,0000 0000 0000 0000 000000
2017-09-18 07:56:56,-0.04,0.52,0.00,24.28,27.54,30.35,13.90,39.68,1022.94,2031.37,3342.02,2947.02,3360.04,600.06,597.17,57.44,0000 0000 0000 0000 000000
2017-09-18 08:01:57,-0.01,0.52,0.00,24.21,27.55,30.37,13.88,39.64,1022.93,2031.06,3341.99,2947.00,3360.00,600.23,597.52,57.49,0000 0000 0000 0000 000000
2017-09-18 08:06:58,0.01,0.52,0.00,24.29,27.57,30.40,13.71,39.63,1022.94,2031.03,3341.87,2946.99,3359.97,599.38,596.57,57.54,0000 0000 0000 0000 000000
2017-09-18 08:12:00,0.01,0.52,0.00,24.27,27.57,30.41,13.81,39.68,1022.95,2031.01,3341.37,2946.93,3359.92,599.91,597.12,57.59,0000 0000 0000 0000 000000
2017-09-18 08:17:01,0.01,0.52,0.00,24.28,27.57,30.43,13.88,39.98,1022.95,2031.02,3341.06,2946.79,3359.73,600.24,597.42,57.64,0000 0000 0000 0000 000000
2017-09-18 08:22:02,-0.00,0.53,0.00,24.28,27.57,30.51,13.79,39.84,1022.95,2031.01,3341.02,2946.70,3359.36,599.50,596.68,57.69,0000 0000 0000 0000 000000
2017-09-18 08:27:03,0.00,0.53,0.00,24.27,27.55,30.57,13.95,39.92,1022.94,2031.00,3341.01,2946.73,3359.27,600.17,597.30,57.74,0000 0000 0000 0000 000000
2017-09-18 08:32:04,-0.00,0.53,0.00,24.27,27.55,30.56,13.81,39.72,1022.96,2031.00,3341.01,2946.78,3359.27,599.84,597.05,57.79,0000 0000 0000 0000 000000
2017-09-18 08:37:05,-0.00,0.52,0.00,24.26,27.53,30.52,13.87,39.61,1022.96,2031.01,3341.01,2946.87,3359.32,600.19,597.51,57.84,0000 0000 0000 0000 000000
2017-09-18 08:42:07,-0.00,0.52,0.00,24.28,27.52,30.48,13.95,39.85,1022.95,2031.01,3341.01,2946.92,3359.34,600.43,597.62,57.89,0000 0000 0000 0000 000000
2017-09-18 08:47:08,-0.01,0.52,0.00,24.16,27.50,30.44,13.90,39.72,1022.95,2031.00,3341.01,2946.94,3359.41,600.20,597.48,57.95,0000 0000 0000 0000 000000
2017-09-18 08:52:09,0.06,0.52,0.00,24.27,27.48,30.41,13.83,39.52,1022.95,2031.04,3340.48,2946.44,3359.21,599.87,597.13,58.00,0000 0000 0000 0000 000000
2017-09-18 08:57:10,0.47,0.54,0.00,24.24,27.46,30.39,13.77,39.50,1022.94,2031.07,3333.29,2941.19,3353.08,599.87,597.14,58.05,0000 0000 0000 0000 000000
2017-09-18 09:02:12,2.02,0.60,0.00,24.23,27.44,30.36,13.82,39.52,1022.96,2031.07,3301.54,2918.47,3327.23,599.79,597.06,58.10,0000 0000 0000 0000 000000
2017-09-18 09:07:13,3.36,0.76,0.00,24.22,27.42,30.32,13.85,39.70,1022.96,2031.03,3235.91,2871.57,3274.28,599.75,597.16,58.15,0000 0000 0000 0000 000000
2017-09-18 09:12:14,3.20,0.92,0.00,24.22,27.40,30.28,13.83,39.88,1022.96,2031.01,3173.60,2826.61,3223.68,600.43,597.83,58.20,0000 0000 0000 0000 000000
2017-09-18 09:17:16,4.94,1.14,0.00,24.22,27.37,30.23,13.86,40.21,1022.96,2030.99,3087.57,2763.96,3153.33,600.10,597.45,58.25,0000 0000 0000 0000 000000
2017-09-18 09:22:17,3.76,1.36,0.00,24.27,27.35,30.18,13.81,39.92,1022.96,2030.98,3012.01,2708.60,3091.30,599.39,596.63,58.30,0000 0000 0000 0000 000000
2017-09-18 09:27:18,1.30,1.48,0.20,24.21,27.32,30.16,13.91,40.12,1022.96,2030.99,2978.89,2684.35,3064.18,600.13,597.48,58.35,0000 0000 0000 0000 000000
2017-09-18 09:32:20,1.18,1.53,3.00,24.19,27.30,30.17,13.85,39.94,1022.96,2030.99,2959.83,2670.45,3048.49,600.29,597.54,58.40,0000 0000 0000 0000 000000
2017-09-18 09:37:21,1.21,1.59,3.00,24.21,27.28,30.13,13.79,40.03,1022.96,2030.99,2938.61,2654.95,3031.03,600.24,597.55,58.45,0000 0000 0000 0000 000000
2017-09-18 09:42:22,0.92,1.65,3.00,24.19,27.26,30.14,13.84,40.15,1022.96,2030.99,2920.87,2642.18,3016.56,600.09,597.47,58.50,0000 0000 0000 0000 000000
2017-09-18 09:47:23,0.75,1.69,3.00,24.19,27.24,30.12,13.88,40.20,1022.96,2030.99,2907.54,2632.58,3005.85,599.76,597.16,58.55,0000 0000 0000 0000 000000
2017-09-18 09:52:25,0.66,1.72,3.00,24.18,27.21,30.06,13.93,40.37,1022.96,2031.00,2895.88,2624.31,2996.49,599.97,597.47,58.60,0000 0000 0000 0000 000000
2017-09-18 09:57:25,1.10,1.76,2.80,24.26,27.20,30.06,13.84,40.17,1022.96,2031.01,2879.81,2613.01,2983.39,600.35,597.49,58.65,0000 0000 0000 0000 000000
2017-09-18 10:02:27,1.50,1.85,1.00,24.24,27.17,30.05,13.85,40.21,1022.96,2031.02,2853.20,2593.98,2961.40,599.88,597.13,58.70,0000 0000 0000 0000 000000
2017-09-18 10:07:28,0.16,1.87,1.00,24.23,27.15,30.03,13.83,40.34,1022.96,2031.07,2846.78,2589.61,2956.35,600.16,597.42,58.75,0000 0000 0000 0000 000000
2017-09-18 10:12:29,0.19,1.88,1.00,24.21,27.13,30.02,13.74,40.17,1022.96,2031.22,2844.24,2587.69,2954.07,599.68,597.15,58.80,0000 0000 0000 0000 000000
2017-09-18 10:17:30,0.69,1.90,1.00,24.22,27.11,30.00,13.87,40.29,1022.96,2031.34,2835.38,2581.75,2946.99,600.02,597.24,58.85,0000 0000 0000 0000 000000
2017-09-18 10:22:32,1.37,1.96,1.00,24.18,27.10,29.98,13.82,40.36,1022.96,2031.56,2813.79,2567.50,2929.67,599.46,596.83,58.90,0000 0000 0000 0000 000000
2017-09-18 10:27:33,1.48,2.03,1.00,24.18,27.07,29.99,13.81,40.42,1022.96,2031.59,2789.50,2551.77,2910.01,599.62,597.01,58.95,0000 0000 0000 0000 000000
2017-09-18 10:32:34,1.11,2.09,1.00,24.26,27.06,29.96,13.81,40.22,1022.96,2031.74,2770.08,2539.01,2894.31,600.25,597.57,59.01,0000 0000 0000 0000 000000
2017-09-18 10:37:36,1.67,2.18,1.00,24.19,27.05,29.93,13.83,40.28,1022.96,2031.68,2742.97,2520.90,2872.36,599.90,597.26,59.06,0000 0000 0000 0000 000000
2017-09-18 10:42:37,0.93,2.24,1.00,24.22,27.02,29.94,13.83,40.03,1022.96,2031.87,2725.46,2509.30,2858.36,599.99,597.21,59.11,0000 0000 0000 0000 000000
2017-09-18 10:47:38,1.09,2.29,1.00,24.15,27.01,29.92,13.87,40.11,1022.96,2031.94,2709.05,2498.55,2845.28,600.26,597.75,59.16,0000 0000 0000 0000 000000
2017-09-18 10:52:39,1.36,2.35,1.00,24.14,27.00,29.90,13.79,40.08,1022.96,2031.96,2687.93,2484.69,2828.21,599.94,597.51,59.21,0000 0000 0000 0000 000000
2017-09-18 10:57:40,1.69,2.43,1.00,24.13,26.97,29.87,13.83,40.21,1022.96,2031.98,2662.54,2467.66,2807.68,599.95,597.33,59.26,0000 0000 0000 0000 000000
2017-09-18 11:02:42,1.55,2.51,1.00,24.12,26.97,29.86,13.82,40.16,1022.96,2031.98,2637.61,2450.69,2787.42,600.06,597.57,59.31,0000 0000 0000 0000 000000
2017-09-18 11:07:43,1.35,2.58,1.00,24.17,26.95,29.85,13.84,40.08,1022.96,2031.96,2616.47,2436.21,2770.03,599.90,597.24,59.36,0000 0000 0000 0000 000000
2017-09-18 11:12:44,1.16,2.65,1.00,24.15,26.94,29.85,13.82,40.14,1022.96,2031.97,2597.48,2423.19,2754.62,599.86,597.38,59.41,0000 0000 0000 0000 000000
2017-09-18 11:17:45,0.96,2.70,1.00,24.13,26.92,29.83,13.75,40.21,1022.97,2031.98,2583.28,2413.34,2743.34,599.83,597.33,59.46,0000 0000 0000 0000 000000
2017-09-18 11:22:47,0.88,2.75,1.00,24.18,26.91,29.83,13.82,40.10,1022.97,2031.99,2569.21,2403.38,2732.06,600.03,597.40,59.51,0000 0000 0000 0000 000000
2017-09-18 11:27:48,0.59,2.78,1.00,24.13,26.90,29.82,13.85,40.18,1022.97,2031.99,2559.96,2396.74,2724.73,600.24,597.70,59.56,0000 0000 0000 0000 000000
2017-09-18 11:32:49,0.73,2.82,1.00,24.17,26.90,29.80,13.85,40.34,1022.98,2031.99,2550.15,2389.68,2716.96,600.17,597.59,59.61,0000 0000 0000 0000 000000
2017-09-18 11:37:50,0.93,2.86,1.00,24.14,26.88,29.78,13.86,40.44,1022.98,2031.99,2536.67,2380.30,2706.70,599.99,597.39,59.66,0000 0000 0000 0000 000000
2017-09-18 11:42:52,0.66,2.90,1.00,24.11,26.87,29.77,13.92,40.40,1022.97,2031.99,2525.67,2372.80,2698.56,600.67,598.19,59.71,0000 0000 0000 0000 000000
2017-09-18 11:47:53,0.19,2.92,1.00,24.12,26.86,29.75,13.82,40.67,1022.96,2031.99,2521.39,2369.80,2695.32,599.65,597.19,59.76,0000 0000 0000 0000 000000
2017-09-18 11:52:54,-0.04,2.92,1.00,24.07,26.85,29.72,13.80,40.50,1022.96,2031.99,2521.38,2369.90,2695.32,599.73,597.18,59.81,0000 0000 0000 0000 000000
2017-09-18 11:57:56,-0.02,2.92,0.80,24.12,26.85,29.72,13.91,40.20,1022.96,2032.00,2522.04,2370.01,2695.98,600.54,598.04,59.86,0000 0000 0000 0000 000000
2017-09-18 12:02:57,-0.01,0.29,0.00,24.09,26.85,29.73,12.20,39.02,1022.96,2034.23,3466.59,3022.33,3471.18,530.60,531.03,0.00,0000 0000 0000 0000 000000
2017-09-18 12:07:58,-0.01,0.00,0.00,24.11,26.82,29.69,13.93,44.82,1022.96,2034.49,3568.20,3093.98,3557.04,599.81,597.31,0.05,0000 0000 0000 0000 000000
2017-09-18 12:13:00,-0.00,0.00,0.00,24.13,26.82,29.70,13.90,44.72,1022.96,2034.70,3567.67,3093.83,3556.80,599.93,597.45,0.10,0000 0000 0000 0000 000000
2017-09-18 12:18:01,0.00,0.00,0.00,24.08,26.80,29.67,13.96,44.66,1022.96,2034.78,3567.02,3093.31,3556.15,599.95,597.58,0.15,0000 0000 0000 0000 000000
2017-09-18 12:23:02,0.00,0.00,0.00,24.08,26.80,29.67,13.90,44.65,1022.96,2034.82,3566.98,3093.18,3556.01,600.34,597.93,0.21,0000 0000 0000 0000 000000
2017-09-18 12:28:03,0.01,0.00,0.00,24.07,26.78,29.67,13.86,44.60,1022.96,2034.92,3566.68,3093.12,3556.00,600.15,597.75,0.26,0000 0000 0000 0000 000000
2017-09-18 12:33:04,0.01,0.00,0.00,24.07,26.77,29.64,13.93,44.88,1022.96,2034.93,3566.26,3093.10,3556.00,599.80,597.44,0.31,0000 0000 0000 0000 000000
2017-09-18 12:38:06,-0.00,0.00,0.00,24.06,26.76,29.65,13.92,44.63,1022.96,2034.94,3566.11,3093.10,3555.98,600.12,597.75,0.36,0000 0000 0000 0000 000000
2017-09-18 12:43:07,0.00,0.00,0.00,24.07,26.75,29.62,13.91,44.67,1022.96,2034.96,3566.02,3093.14,3555.97,600.03,597.70,0.41,0000 0000 0000 0000 000000
2017-09-18 12:48:08,-0.01,0.00,0.00,24.08,26.75,29.61,14.00,44.88,1022.95,2034.98,3566.03,3093.33,3555.98,600.54,598.11,0.46,0000 0000 0000 0000 000000
2017-09-18 12:53:09,-0.01,0.00,0.00,24.09,26.72,29.60,14.03,44.68,1022.96,2034.98,3566.04,3093.58,3555.98,600.34,597.88,0.51,0000 0000 0000 0000 000000
2017-09-18 12:58:11,-0.00,0.00,0.00,24.06,26.72,29.60,13.93,44.38,1022.96,2034.99,3566.03,3093.73,3555.97,600.03,597.59,0.56,0000 0000 0000 0000 000000